Flag for Germany Weather past 2 weeks in Greven, North Rhine-Westphalia, Germany

Now
48 °F

Fog.


Feels Like: 43 °F
Forecast: 43 / 50 °F
Wind: 12 mph from Southwest

Location: Muenster / Osnabrueck

Current Time: Mar 28, 2015 at 7:32:05 PM

Latest Report: Mar 28, 2015 at 6:50 PM


Visibility: 3 mi

Pressure: 29.83 "Hg

Humidity: 100%

Dew point: 48 °F

Location of GrevenLocation

Historic Weather in Greven — Graph

°F

Greven temperature yesterday

Maximum temperature yesterday: 48 °F (at 11:20 AM)
Minimum temperature yesterday: 43 °F (at 12:20 AM)
Average temperature yesterday: 44 °F

Past Weeks' High & Low Weather Summary

 TemperatureHumidityPressure
High63 °F (Mar 17, 2:20 PM)100% (Mar 17, 4:50 AM)30.39 "Hg (Mar 17, 4:50 AM)
Low28 °F (Mar 23, 4:20 AM)42% (Mar 17, 2:50 PM)29.65 "Hg (Mar 25, 4:20 AM)
Average42 °F82%30.11 "Hg
* Reported Mar 13 6:20 PM — Mar 28 6:20 PM, Greven, Weather by CustomWeather, © 2015

Note: Actual official high and low records may vary slightly from our data, if they occured in-between our weather recording intervals... More about our weather records

Advertising

Greven weather history for previous 24 hours

 ConditionsComfort  
Time TempWeatherWind HumidityBarometerVisibility
6:20 PM
Sat, Mar 28
48 °FPartly sunny.12 mph94%29.83 "Hg4 mi
5:50 PM48 °FPartly sunny.10 mph94%29.83 "Hg4 mi
5:20 PM46 °FDrizzle. Fog.10 mph100%29.86 "Hg2 mi
4:50 PM46 °FDrizzle. Fog.8 mph100%29.86 "Hg3 mi
4:20 PM46 °FLight rain. Fog.10 mph93%29.89 "Hg2 mi
3:50 PM48 °FLight rain. Partly sunny.10 mph82%29.89 "Hg5 mi
3:20 PM48 °FLight rain. Partly sunny.7 mph82%29.92 "Hg6 mi
2:50 PM48 °FLight rain. Partly sunny.8 mph82%29.92 "Hg6 mi
2:20 PM50 °FLight rain. Partly sunny.12 mph71%29.95 "Hg6 mi
1:50 PM52 °FLight rain. Partly sunny.12 mph58%29.95 "HgN/A
1:20 PM54 °FBroken clouds.13 mph51%29.98 "HgN/A
12:50 PM54 °FPartly sunny.12 mph51%29.98 "HgN/A
12:20 PM54 °FPartly sunny.12 mph54%30.01 "HgN/A
11:50 AM52 °FSunny.9 mph54%30.01 "Hg10 mi
11:20 AM52 °FSunny.12 mph58%30.04 "Hg10 mi
10:50 AM48 °FSunny.8 mph58%30.07 "Hg10 mi
10:20 AM48 °FClear.8 mph66%30.07 "Hg6 mi
9:50 AM45 °FClear.9 mph76%30.09 "Hg6 mi
9:20 AM43 °FClear.7 mph81%30.09 "Hg5 mi
8:50 AM41 °FClear.5 mph87%30.12 "Hg5 mi
8:20 AM37 °FClear.5 mph100%30.12 "Hg4 mi
7:50 AM36 °FClear.5 mph100%30.15 "Hg4 mi
7:20 AM34 °FFog.5 mph100%30.15 "Hg4 mi
6:50 AM30 °FChilly.3 mph100%30.15 "Hg5 mi
6:20 AM30 °FFog.5 mph100%30.15 "HgN/A
5:50 AM32 °FFog.5 mph100%30.15 "HgN/A
5:20 AM32 °FFog.2 mph100%30.15 "HgN/A
4:20 AM32 °FChilly.2 mph100%30.18 "HgN/A
3:50 AM32 °FChilly.2 mph100%30.18 "HgN/A
3:20 AM34 °FFog.2 mph100%30.18 "HgN/A
2:50 AM36 °FPassing clouds.1 mph93%30.18 "HgN/A
2:20 AM36 °FPassing clouds.3 mph93%30.18 "HgN/A
1:50 AM37 °FPassing clouds.3 mph87%30.18 "HgN/A
1:20 AM39 °FPassing clouds.3 mph93%30.18 "HgN/A
12:50 AM39 °FPassing clouds.6 mph93%30.18 "HgN/A
12:20 AM41 °FPassing clouds.7 mph87%30.18 "HgN/A
11:50 PM
Fri, Mar 27
43 °FPassing clouds.7 mph87%30.18 "HgN/A
11:20 PM43 °FPassing clouds.6 mph81%30.18 "HgN/A
10:50 PM43 °FPassing clouds.7 mph87%30.18 "HgN/A
10:20 PM43 °FPassing clouds.7 mph81%30.18 "HgN/A
9:50 PM43 °FPassing clouds.12 mph81%30.15 "HgN/A
9:20 PM43 °FPassing clouds.13 mph81%30.15 "HgN/A
8:50 PM43 °FPartly cloudy.12 mph87%30.15 "HgN/A
8:20 PM43 °FPassing clouds.8 mph87%30.15 "HgN/A
7:50 PM45 °FPassing clouds.9 mph76%30.15 "HgN/A
7:20 PM45 °FPassing clouds.10 mph81%30.12 "HgN/A
Weather by CustomWeather, © 2015

See weather overviewHow to use our weather pages